Weather in Rasskazovo

Russia / Tambov Oblast     52°42′21″N   41°45′06″E
temp.,
°C
wind,
m/s
gust,
m/s
humid.,
%
clouds,
%
prec.,
mm/h
press.,
hPa
HPBL,
m
13 june, sun
sun1300:00+14s379627 0.0 1008141
03:00+13s39975 0.0 1008196
06:00+15s389571 0.0 1008271
09:00+20ssw45715 0.0 1009803
12:00+23sw566228 0.6 10091490
15:00+23sw466928 2.6 10091182
18:00+21ssw248592 3.1 1009236
21:00+17ssw229481 3.6 101136
14 june, mon
mon1400:00+16s229626 0.0 101128
03:00+15ssw11957 0.0 101211
06:00+17s12925 0.0 101474
09:00+23se10685 0.0 1014618
12:00+25ene225896 0.3 10141310
15:00+25ne1256100 1.3 10141440
18:00+22ese2383100 0.9 1014134
21:00+18e1291100 1.3 101511
15 june, tue
tue1500:00+17ese2296100 0.2 101426
03:00+16se2398100 1.8 101490
06:00+17sse1294100 0.1 1014107
09:00+20ne0177100 0.1 1014537
12:00+19ssw2187100 1.2 1013357
15:00+21nw237671 1.8 1011721
18:00+21ne3583100 1.8 1010343
21:00+16nne259459 2.1 1009101
16 june, wed
wed1600:00+16n22976 0.4 100942
03:00+15nnw22986 0.5 100839
06:00+17nw24955 0.0 1008155
09:00+22nw24707 0.0 1009747
12:00+24wnw446120 0.3 10081356
15:00+25nw57607 0.6 10091318
18:00+22nw47795 0.6 1010546
21:00+18n4109616 1.3 1012362
17 june, thu
thu1700:00+15nnw279892 0.0 1013205
03:00+16n41096100 0.0 1014493
06:00+15n4109570 0.0 1016460
09:00+20nne69673 0.0 1017726
12:00+23ne68550 0.0 10181203
15:00+23ne67500 0.0 10181427
18:00+21ne58630 0.0 10191119
21:00+17ne412780 0.0 1020442